Regional Weather Roundup
Issued by NWS

Home | Current Version | Previous Version | Text Only | Print | Product List | Glossary On
Versions: 1 2 3 4 5 6 7 8 9 10 11 12 13 14 15 16 17 18 19 20 21 22 23 24 25 26 27 28 29 30 31 32 33 34 35 36 37 38 39 40 41 42 43 44 45 46 47 48 49 50
000
ASUS43 KFSD 090210
RWRSD

WEATHER ROUNDUP FOR SOUTH DAKOTA
NATIONAL WEATHER SERVICE SIOUX FALLS SD
800 PM CST MON FEB 08 2016

NOTE: "FAIR" INDICATES FEW OR NO CLOUDS BELOW 12,000 FEET WITH NO
SIGNIFICANT WEATHER AND/OR OBSTRUCTIONS TO VISIBILITY.


SDZ001>005-009-010-012>017-090300-
NORTHWEST AND NORTH CENTRAL SOUTH DAKOTA

CITY           SKY/WX    TMP DP  RH WIND       PRES   REMARKS
BUFFALO          N/A     36  13  38 NW8       30.18S
FAITH            N/A     33  12  41 N14       30.22F WCI  23
MOBRIDGE       CLOUDY    33  19  56 NW14      30.19S WCI  23
$$

SDZ012>016-024>037-041>051-057-063-072>074-090300-
SOUTHWEST AND SOUTH CENTRAL SOUTH DAKOTA

CITY           SKY/WX    TMP DP  RH WIND       PRES   REMARKS
RAPID CTY ARPT CLOUDY    35  16  45 NW5       30.23F
PIERRE         CLOUDY    32  17  54 N12       30.21F WCI  23
CUSTER         CLOUDY    37  20  50 N17G25    30.21F
ELLSWORTH AFB  CLOUDY    38  15  39 N10       30.23F
PHILIP         CLOUDY    34  20  56 NW8       30.24F WCI  27
PINE RIDGE     CLOUDY    33  19  56 SW3       30.26F
SPEARFISH      CLOUDY    39  23  52 W9        30.26S
WINNER         CLOUDY    32  21  64 NW10      30.20F WCI  24
$$

SDZ004>011-016>023-039-040-090300-
NORTHEAST SOUTH DAKOTA

CITY           SKY/WX    TMP DP  RH WIND       PRES   REMARKS
ABERDEEN       CLEAR     23  11  60 N12       30.20F WCI  12
WATERTOWN      CLOUDY    15   8  73 N20       30.09F WCI  -2
BROOKINGS      CLEAR     16  10  77 N14       30.09F WCI   2
SISSETON         N/A     11   8  88 N17       30.17S WCI  -6
$$

SDZ017-020-022-023-036>040-048>070-090300-
SOUTHEAST SOUTH DAKOTA

CITY           SKY/WX    TMP DP  RH WIND       PRES   REMARKS
SIOUX FALLS    PTCLDY    21  13  71 N17       30.11R WCI   7
HURON          CLEAR     23  14  68 N12       30.17S WCI  12
CHAMBERLAIN    CLOUDY    31  19  61 NW14G21   30.19F WCI  21
MITCHELL       CLEAR     27  17  66 N12       30.17F WCI  17
YANKTON        CLOUDY    28  16  59 NW17      30.15R WCI  16
$$

ABBREVIATIONS USED IN REMARKS
   TC - TEMPERATURE IN CELSIUS
  WCI - WIND CHILL INDEX
   HX - HEAT INDEX
  VSB - VISIBILITY




USA.gov is the U.S. government's official web portal to all federal, state and local government web resources and services.